Location: Dresden
(51.0483°N, 13.7137°E)
Time: 06:39:59
(UTC+01:00)

ISS - Pass Details

Date: 16 November 2017
Orbit: 402 x 407 km, 51.6° (Epoch: 22 November)

Event Time Altitude Azimuth Distance (km) Brightness Sun altitude
Exits shadow 05:38:09 18° 214° (SW) 1,078 -1.9 -16.3°
Drops below altitude 10° 05:40:16 10° 173° (S) 1,450 -0.8 -16.0°
Sets 05:42:46 0° 153° (SSE) 2,305 0.6 -15.6°
